Weather in Joacaba

Brazil     27°10′37″S   51°30′14″W
temp.,
°C
wind,
m/s
gust,
m/s
humid.,
%
clouds,
%
prec.,
mm/h
press.,
hPa
HPBL,
m
17 june, thu
thu1700:00+8ssw118294 0.0 102375
03:00+5ssw00953 0.0 102311
06:00+4ese009830 0.0 102312
09:00+8wsw1081100 0.0 1024187
12:00+11sw117388 0.0 1024394
15:00+14ssw226250 0.0 1021824
18:00+9ssw118696 0.0 102210
21:00+7ne119492 0.0 102411
18 june, fri
fri1800:00+7ene119653 0.0 102413
03:00+6ne119853 0.0 102411
06:00+8se119398 0.0 102335
09:00+11ene128399 0.0 1024190
12:00+13nne1278100 0.0 1024373
15:00+12ene1291100 0.1 1022110
18:00+11ene1196100 0.2 102235
21:00+11ene2899100 2.1 1023352
19 june, sat
sat1900:00+11ene21097100 0.7 1022557
03:00+11ene31197100 3.8 1021625
06:00+11ene31196100 0.6 1020668
09:00+11nne21296100 4.4 1021692
12:00+12ene2899100 6.4 1021485
15:00+13ene1398100 9.9 1018243
18:00+12ne1199100 0.6 101930
21:00+12sw1599100 2.4 1020361
20 june, sun
sun2000:00+11sw1499100 0.1 1020310
03:00+11w1599100 0.3 1020324
06:00+11w02100100 0.1 1020213
09:00+11wnw019999 0.1 1021159
12:00+15nnw017951 0.1 1021712
15:00+17ssw1159100 0.2 10181075
18:00+11s1196100 0.0 102011
21:00+10ene1198100 0.0 102112
21 june, mon
mon2100:00+9ne1298100 0.0 102159
03:00+9ene2697100 0.0 1020159
06:00+11ne21187100 0.0 1019512
09:00+11ene2798100 2.1 1021378
12:00+12ene2697100 2.4 1020306
15:00+13ene1299100 3.3 101794
18:00+13ne1299100 1.1 101765
21:00+12ne1199100 1.3 101926